User: anonymous   Login
Location: Coffee Creek Observatory
(38.8077°N, 94.7179°W)
Time: 18:49:31
(UTC-05:00)
Language:

Lacrosse 4 Rocket - Orbit

View from above orbital plane
View from above orbital plane
View from above satellite
View from above satellite

Ground track
Ground track

The orbit data is extracted from the following two-line orbital elements,

1 26474U 00047B   17227.84949886  .00000095  00000-0  19327-4 0  9999
2 26474  67.9938  48.1630 0061263 258.6939 100.7315 14.95519121924302
Epoch (UTC): 15 August 2017 20:23:16
Eccentricity: 0.0061263
inclination: 67.9938°
perigee height: 538 km
apogee height: 623 km
right ascension of ascending node: 48.1630°
argument of perigee: 258.6939°
revolutions per day: 14.95519121
mean anomaly at epoch: 100.7315°
orbit number at epoch: 92430

The dashed part of the orbit path shows where the satellite is in the earth's shadow,  

DLR